Location: Wayah Bald
(35.1806°N, 83.5603°W)
Time: 20:17:53
(UTC-04:00)

Daily predictions for brighter satellites

Satellite Brightness Start Highest point End
(mag) Time Altitude Azimuth Time Altitude Azimuth Time Altitude Azimuth
Meteor 2-5 Rocket 3.7 19:42:57 10° N 19:48:33 62° E 19:54:01 10° SSE
Cosmos 2219 Rocket 3.2 19:45:46 10° SW 19:51:12 51° WNW 19:56:42 10° N
Okean 3 Rocket 4.3 19:47:53 10° NNE 19:52:01 34° ENE 19:56:08 10° SE
ALOS 4.0 19:49:52 10° E 19:52:14 14° ENE 19:54:36 10° NE
Aureole 2 Rocket 3.7 19:50:00 10° SSE 19:53:53 32° ESE 19:57:48 10° NE
Cosmos 1441 Rocket 3.2 19:50:19 10° N 19:54:00 55° E 19:57:40 10° SSE
SJ-6B 3.1 19:51:17 10° SSE 19:55:01 45° ENE 19:58:52 10° N
FREGAT/IRIS 3.6 19:52:38 10° SE 19:55:21 29° ENE 19:58:06 10° NNE
Helios 1B rocket 3.3 19:52:31 10° NE 19:56:07 29° E 19:59:41 10° SSE
Cosmos 2278 Rocket 2.3 19:50:38 10° NNW 19:56:14 61° ENE 20:01:49 10° SSE
Meteor 1-24 Rocket 4.1 19:51:50 10° N 19:57:09 41° ENE 20:02:16 10° SSE
Meteor 1-28 Rocket 3.1 19:59:02 10° NNE 20:02:45 65° E 20:06:25 10° S
Cosmos 1707 2.6 19:59:20 10° N 20:03:11 70° E 20:07:00 10° SSE
Cosmos 1624 Rocket 4.4 19:59:54 10° N 20:04:51 42° ENE 20:09:45 10° SE
Cosmos 1378 3.9 20:04:33 10° NNE 20:07:53 30° E 20:11:11 10° SE
CZ-4C R/B 3.2 20:08:58 10° SW 20:14:00 47° NW 20:19:39 10° NNE
OAO 3 Rocket 3.3 20:10:10 10° WSW 20:14:52 61° SSE 20:18:46 15° E
HJ-1C 3.8 20:13:16 10° SE 20:16:25 40° ENE 20:19:36 10° N
Meteor 1-29 3.4 20:13:59 10° NNE 20:17:19 40° E 20:20:37 10° S
Cosmos 2346 Rocket 4.4 20:12:41 10° N 20:18:47 86° E 20:24:49 10° S
ATLAS CENTAUR R/B 1.6 20:16:08 10° NNW 20:20:10 45° ENE 20:23:04 15° SE
Cosmos 2333 Rocket 3.8 20:16:58 10° SW 20:22:17 38° WNW 20:27:39 10° N
GPS 2-05 Rocket1 4.1 20:20:19 10° W 20:23:23 32° SSW 20:25:56 14° SE
USA 215 3.7 20:17:10 10° NE 20:23:37 64° NW 20:30:02 10° WSW
Atlas Centaur 2 3.3 20:17:25 10° W 20:25:47 60° S 20:31:50 17° ESE
Cosmos 1452 Rocket 4.4 20:29:22 10° N 20:33:57 30° ENE 20:36:02 23° ESE
Cosmos 2034 Rocket 4.1 20:28:42 10° SSE 20:34:44 55° E 20:40:52 10° NNE
Helios 1A 2.9 20:31:32 10° SSE 20:35:40 68° ENE 20:39:50 10° N
Cosmos 1464 Rocket 3.9 20:32:20 10° S 20:38:37 82° E 20:44:51 10° N
SEDSat Delta rocket 4.3 20:38:04 10° WSW 20:44:41 57° S 20:48:22 27° ESE
Cosmos 1766 4.0 20:41:10 10° SSW 20:45:02 56° W 20:48:56 10° N
SeaSat 1 2.5 20:42:45 10° NE 20:47:35 52° ESE 20:52:21 10° S
GPS 2-04 Rocket1 4.4 20:47:06 10° SSW 20:48:47 17° SSE 20:48:47 17° SSE
Cosmos 1766 Rocket 3.4 20:46:45 10° N 20:51:06 64° E 20:54:05 19° SSE
In-Cosmos 22 4.2 20:45:57 10° N 20:51:42 65° E 20:57:23 10° SSE
Cosmos 2237 Rocket 4.5 20:48:50 10° WSW 20:53:27 25° WNW 20:58:05 10° N
ASTRO E2 3.1 20:49:39 10° WSW 20:53:31 46° S 20:54:17 40° SE
NOSS 3-2 (A) 3.8 20:48:32 10° SW 20:54:30 67° WNW 21:00:59 10° NNE
Cosmos 1953 2.1 20:52:53 10° S 20:56:53 83° E 21:00:52 10° N
CZ-4B DEB 2.6 20:57:57 70° ENE 20:57:57 70° ENE 21:01:12 10° N
CZ-2D R/B 3.2 21:01:16 57° ESE 21:01:36 60° ENE 21:05:27 10° N
Cosmos 1269 Rocket 4.1 21:00:50 10° S 21:05:55 50° ESE 21:11:00 10° NNE
ATLAS 5 CENTAUR R/B 1.9 21:04:36 10° SW 21:09:18 75° WNW 21:14:23 10° NNE
SL-16 R/B 3.5 21:05:44 10° SW 21:11:03 41° WNW 21:16:25 10° N
Cosmos 724 4.2 21:05:12 10° SSW 21:11:03 79° ESE 21:17:07 10° NNE
Cosmos-2242 3.4 21:13:45 10° SSW 21:18:02 62° W 21:22:23 10° N
Cosmos 1805 4.2 21:16:19 10° SSW 21:20:06 47° W 21:23:55 10° N
Resurs 01 Rocket 3.4 21:16:49 10° SSW 21:20:46 31° W 21:24:45 10° NW
H-2A R/B 2.9 21:23:12 71° W 21:23:12 71° W 21:27:07 10° NNW
Envisat 4.5 21:27:00 23° NNE 21:27:00 23° NNE 21:29:22 10° N
NOSS 3-3 (A) 4.4 21:20:31 10° NNW 21:28:08 87° ENE 21:31:19 41° SSE
NOSS 3-3 (C) 4.4 21:20:37 10° NNW 21:28:14 86° ENE 21:31:23 42° SSE
ALOS 3.0 21:26:20 22° SSW 21:29:11 51° W 21:33:45 10° NNW
NOSS 3-2 (C) 4.4 21:25:11 10° SW 21:30:57 46° NW 21:37:15 10° NNE
CENTAUR R/B 4.2 21:31:50 10° S 21:32:48 15° S 21:32:48 15° S
ASTEX 1 4.1 21:35:27 10° N 21:40:13 52° W 21:44:56 10° SSW
OAO 3 Rocket 4.4 21:53:32 10° W 21:56:35 39° W 21:56:35 39° W
ATLAS CENTAUR R/B 4.2 21:57:23 10° W 21:58:39 11° WSW 21:59:27 11° WSW
Cosmos 1092 Rocket 4.0 21:53:33 10° N 21:59:45 72° W 22:00:04 71° WSW
Cosmos 2369 Rocket 3.6 21:55:32 10° N 21:58:21 27° N 21:58:21 27° N
Cosmos 1634 Rocket 4.2 22:09:54 66° WNW 22:09:54 66° WNW 22:15:56 10° N
Atlas Centaur 2 3.8 22:07:47 10° W 22:14:28 35° SSW 22:14:28 35° SSW
Cosmos 1943 Rocket 4.5 22:11:36 10° N 22:12:33 14° N 22:12:33 14° N
